Flag Weather past 2 weeks in Jalalabad, Afghanistan

Now
66 °F

Sunny.


Feels Like: 66 °F
Forecast: 44 / 71 °F
Wind: No wind

Location: Peshawar Airport

Current Time: Nov 23, 2014 at 10:34:06 AM

Latest Report: Nov 23, 2014 at 9:30 AM


Visibility: 2 mi

Pressure: 30.09 "Hg

Humidity: 46%

Dew point: 45 °F

Location of JalalabadLocation

Historic Weather in Jalalabad — Graph

°F

Jalalabad temperature yesterday

Maximum temperature yesterday: 70 °F (at 12:30 PM)
Minimum temperature yesterday: 50 °F (at 3:30 AM)
Average temperature yesterday: 58 °F

Past Weeks' High & Low Weather Summary

 TemperatureHumidityPressure
High90 °F (Nov 20, 1:30 PM)88% (Nov 9, 6:30 PM)30.21 "Hg (Nov 9, 6:30 PM)
Low46 °F (Nov 18, 5:30 AM)20% (Nov 10, 12:30 PM)29.92 "Hg (Nov 21, 4:30 PM)
Average62 °F54%30.04 "Hg
* Reported Nov 8 9:30 AM — Nov 23 9:30 AM, Jalalabad, Weather by CustomWeather, © 2014

Note: Actual official high and low records may vary slightly from our data, if they occured in-between our weather recording intervals... More about our weather records

Advertising

Jalalabad weather history for previous 24 hours

 ConditionsComfort  
Time TempWeatherWind HumidityBarometerVisibility
9:30 AM
Nov 23
66 °FSunny.No wind46%30.09 "Hg2 mi
8:30 AM57 °FSunny.No wind59%30.09 "Hg2 mi
7:30 AM54 °FSunny.No wind67%30.07 "Hg2 mi
6:30 AM48 °FSunny.No wind71%30.07 "Hg2 mi
5:30 AM48 °FClear.No wind71%30.04 "Hg2 mi
4:30 AM48 °FClear.No wind71%30.01 "Hg2 mi
3:30 AM50 °FClear.No wind76%29.98 "Hg2 mi
12:30 AM54 °FClear.No wind72%30.01 "Hg2 mi
11:30 PM
Nov 22
54 °FClear.No wind72%30.01 "Hg2 mi
10:30 PM55 °FClear.No wind67%30.01 "Hg2 mi
9:30 PM55 °FClear.No wind67%30.01 "Hg2 mi
8:30 PM57 °FClear.No wind67%29.98 "Hg2 mi
7:30 PM59 °FClear.No wind48%29.98 "Hg2 mi
6:30 PM59 °FClear.No wind48%29.95 "Hg1 mi
5:30 PM64 °FHaze.No wind46%29.92 "Hg1 mi
3:30 PM70 °FHaze.No wind38%29.92 "Hg2 mi
1:30 PM70 °FSunny.No wind43%29.92 "Hg2 mi
12:30 PM70 °FMild.N/A43%29.95 "HgN/A
11:30 AM68 °FMild.N/A43%29.98 "HgN/A
10:30 AM64 °FMild.N/A46%30.01 "HgN/A
Weather by CustomWeather, © 2014

See weather overviewHow to use our weather pages